Retour au catalogue

STEP 2

ActifSciencePO
NORAD 23105·PAYLOAD·🇺🇸 United States

Lancé May 19, 1994 depuis Vandenberg Space Force Base

Loading…

Prochains Passages (prochaines 24 heures)

TLE

FraisSource: Space-Track

Époque: Sep 14, 2026, 12:07 UTC

1 23105U 94029A   26257.50552019  .00001743  00000-0  16304-3 0  9996
2 23105  81.9344  82.6514 0081045 326.4029  33.2063 14.91088315733192

Suivez STEP 2 en temps réel avec AllMySat

Download on the App Store